Louisville, KY

6:16 PM EST on December 18, 2017 (GMT -0500)
Louisville International-Standiford

Weather History for KSDF - August, 2012

Change the Weather History Date:

Thursday, August 30, 2012

  Actual Average Record
Temperature  
Mean Temperature 80 °F 77 °F  
Max Temperature 94 °F 87 °F 98 °F (1953)
Min Temperature 66 °F 67 °F 48 °F (1986)
Degree Days  
Heating Degree Days 0 0  
Month to date heating degree days 0 0  
Since 1 June heating degree days 7 5  
Since 1 July heating degree days 0 0  
Cooling Degree Days 15 12  
Month to date cooling degree days 406 404  
Year to date cooling degree days 1723 1345  
Since 1 June cooling degree days 1368 1171  
Growing Degree Days 30 (Base 50)    
Moisture  
Dew Point 60 °F    
Average Humidity 51    
Maximum Humidity 69    
Minimum Humidity 33    
Precipitation  
Precipitation 0.00 in 0.09 in 3.08 in (2005)
Month to date precipitation 1.46 3.24  
Year to date precipitation 29.57 31.13  
Snow  
Snow 0.00 in 0.00 in - ()
Month to date snowfall 0.0 0.0  
Since 1 June snowfall 0.0 0.0  
Since 1 July snowfall 0.0 0.0  
Snow Depth 0.00 in    
Sea Level Pressure  
Sea Level Pressure 30.03 in    
Wind  
Wind Speed 5 mph (SE)    
Max Wind Speed 17 mph    
Max Gust Speed 24 mph    
Visibility 10 miles    
Events      
T = Trace of Precipitation, MM = Missing Value Source: NWS Daily Summary

Daily Weather History Graph

Daily Weather History Graph

Search for Another Location

Airport or City:

Trip Planner

Search our weather history database for the weather conditions in past years. The results will help you decide how hot, cold, wet, or windy it might be!

Date:

Astronomy

Aug. 30, 2012 Rise Set
Actual Time 7:11 AM EDT 8:14 PM EDT
Civil Twilight 6:44 AM EDT 8:41 PM EDT
Nautical Twilight 6:11 AM EDT 9:14 PM EDT
Astronomical Twilight 5:38 AM EDT 9:47 PM EDT
Moon 7:29 PM EDT (8/30) 6:11 AM EDT (8/30)
Length of Visible Light 13h 57m
Length of Day
13h 03m
Waxing Gibbous, 99% of the Moon is Illuminated
Aug 30
Waxing Gibbous
Aug 31
Full
Sep 8
Last Quarter
Sep 15
New
Sep 22
First Quarter

Hourly Weather History & Observations

Time (EDT) Temp. Heat Index Dew Point Humidity Pressure Visibility Wind Dir Wind Speed Gust Speed Precip Events Conditions
12:56 AM 73.0 °F - 55.9 °F 55% 30.00 in 10.0 mi ESE 4.6 mph - N/A   Clear
1:56 AM 71.6 °F - 55.4 °F 57% 30.01 in 10.0 mi East 3.5 mph - N/A   Clear
2:56 AM 71.1 °F - 55.0 °F 57% 30.00 in 10.0 mi NNE 4.6 mph - N/A   Clear
3:56 AM 69.1 °F - 55.9 °F 63% 30.00 in 10.0 mi North 3.5 mph - N/A   Clear
4:56 AM 69.1 °F - 55.9 °F 63% 30.01 in 10.0 mi Calm Calm - N/A   Clear
5:56 AM 68.0 °F - 55.0 °F 63% 30.01 in 10.0 mi Calm Calm - N/A   Clear
6:56 AM 68.0 °F - 54.0 °F 61% 30.03 in 10.0 mi East 4.6 mph - N/A   Clear
7:56 AM 66.9 °F - 55.0 °F 66% 30.04 in 10.0 mi Calm Calm - N/A   Partly Cloudy
8:56 AM 72.0 °F - 55.0 °F 55% 30.06 in 10.0 mi Calm Calm - N/A   Partly Cloudy
9:56 AM 75.0 °F - 55.9 °F 51% 30.06 in 10.0 mi ESE 4.6 mph - N/A   Partly Cloudy
10:56 AM 79.0 °F - 57.0 °F 47% 30.08 in 10.0 mi ESE 5.8 mph - N/A   Partly Cloudy
11:56 AM 82.9 °F 82.8 °F 59.0 °F 44% 30.08 in 10.0 mi SE 4.6 mph - N/A   Partly Cloudy
12:56 PM 86.0 °F 85.0 °F 57.9 °F 38% 30.07 in 10.0 mi Variable 4.6 mph - N/A   Partly Cloudy
1:56 PM 88.0 °F 87.1 °F 59.0 °F 37% 30.05 in 10.0 mi East 6.9 mph - N/A   Partly Cloudy
2:56 PM 91.9 °F 91.5 °F 60.1 °F 34% 30.03 in 10.0 mi SE 6.9 mph 16.1 mph N/A   Partly Cloudy
3:56 PM 91.9 °F 91.5 °F 60.1 °F 34% 30.01 in 10.0 mi East 4.6 mph - N/A   Partly Cloudy
4:56 PM 93.0 °F 92.7 °F 60.1 °F 33% 29.99 in 10.0 mi East 4.6 mph - N/A   Partly Cloudy
5:56 PM 93.0 °F 94.2 °F 63.0 °F 37% 29.99 in 10.0 mi SSW 11.5 mph - N/A   Partly Cloudy
6:56 PM 91.0 °F 93.0 °F 64.9 °F 42% 29.99 in 10.0 mi SW 6.9 mph - N/A   Partly Cloudy
7:56 PM 89.1 °F 91.3 °F 66.0 °F 46% 30.00 in 10.0 mi South 9.2 mph - N/A   Scattered Clouds
8:56 PM 84.9 °F 88.8 °F 69.1 °F 59% 30.02 in 10.0 mi SSW 8.1 mph - N/A   Scattered Clouds
9:56 PM 84.0 °F 87.8 °F 69.1 °F 61% 30.04 in 10.0 mi South 8.1 mph - N/A   Clear
10:56 PM 82.0 °F 85.9 °F 70.0 °F 67% 30.05 in 10.0 mi South 5.8 mph - N/A   Clear
11:56 PM 81.0 °F 84.4 °F 70.0 °F 69% 30.06 in 10.0 mi South 5.8 mph - N/A   Clear